User: anonymous   Login
Location: G�ppingen
(48.7089°N, 9.6563°E)
Time: 11:43:26
(UTC+01:00)
Language:

AO-7 - Orbit

View from above orbital plane
View from above orbital plane
View from above satellite
View from above satellite

Ground track
Ground track

The orbit data is extracted from the following two-line orbital elements,

1  7530U 74089B   19079.91873749 -.00000053 +00000-0 -51600-4 0  9993
2  7530 101.7334 048.5393 0012194 158.8558 219.4503 12.53637219029032
Epoch (UTC): 20 March 2019 22:02:58
Eccentricity: 0.0012194
inclination: 101.7334°
perigee height: 1440 km
apogee height: 1459 km
right ascension of ascending node: 48.5393°
argument of perigee: 158.8558°
revolutions per day: 12.53637219
mean anomaly at epoch: 219.4503°
orbit number at epoch: 2903

The dashed part of the orbit path shows where the satellite is in the earth's shadow,  

DLR